Location: Boston
(42.3580°N, 71.0600°W)
Time: 03:14:00
(UTC-04:00)

Tiangong 1 - Pass Details

Date: 08 October 2017
Orbit: 293 x 320 km, 42.8° (Epoch: 19 October)

Event Time Altitude Azimuth Distance (km) Brightness Sun altitude
Rises 18:59:04 0° 255° (WSW) 2,038 6.5 -9.3°
Reaches altitude 10° 19:01:03 10° 253° (WSW) 1,204 5.0 -9.6°
Maximum altitude 19:03:44 75° 169° (S) 325 0.6 -10.1°
Enters shadow 19:05:33 18° 84° (E) 842 2.1 -10.5°
